TimeEST,TemperatureF,Dew PointF,Humidity,Sea Level PressureIn,VisibilityMPH,Wind Direction,Wind SpeedMPH,Gust SpeedMPH,PrecipitationIn,Events,Conditions,WindDirDegrees,DateUTC
12:21 AM,44.6,44.6,100,29.62,10.0,SSE,6.9,-,N/A,,Overcast,160,2012-03-03 05:21:00
12:42 AM,46.4,44.6,93,29.62,10.0,South,5.8,-,N/A,,Overcast,170,2012-03-03 05:42:00
12:53 AM,46.0,44.1,93,29.62,10.0,South,5.8,-,N/A,,Overcast,190,2012-03-03 05:53:00
1:53 AM,45.0,44.1,97,29.60,10.0,Calm,Calm,-,N/A,,Overcast,0,2012-03-03 06:53:00
2:53 AM,45.0,43.0,93,29.55,8.0,SE,3.5,-,N/A,,Overcast,140,2012-03-03 07:53:00
3:53 AM,45.0,43.0,93,29.53,6.0,Calm,Calm,-,N/A,,Partly Cloudy,0,2012-03-03 08:53:00
4:19 AM,44.6,42.8,93,29.52,4.0,NW,3.5,-,N/A,,Mostly Cloudy,320,2012-03-03 09:19:00
4:40 AM,42.8,42.8,100,29.52,2.0,Calm,Calm,-,N/A,,Partly Cloudy,0,2012-03-03 09:40:00
4:51 AM,44.6,42.8,93,29.53,3.0,Calm,Calm,-,N/A,,Mostly Cloudy,0,2012-03-03 09:51:00
4:53 AM,44.1,42.1,93,29.54,2.5,Calm,Calm,-,N/A,,Mostly Cloudy,0,2012-03-03 09:53:00
5:07 AM,44.6,42.8,93,29.53,4.0,Calm,Calm,-,N/A,,Mostly Cloudy,0,2012-03-03 10:07:00
5:53 AM,45.0,43.0,93,29.55,5.0,WNW,3.5,-,N/A,,Overcast,290,2012-03-03 10:53:00
6:53 AM,45.0,43.0,93,29.57,4.0,SSW,3.5,-,0.00,,Mostly Cloudy,200,2012-03-03 11:53:00
7:53 AM,51.1,39.9,66,29.61,10.0,WNW,19.6,25.3,N/A,,Mostly Cloudy,290,2012-03-03 12:53:00
8:53 AM,48.9,34.0,56,29.62,10.0,West,6.9,-,N/A,,Clear,270,2012-03-03 13:53:00
9:53 AM,51.1,32.0,48,29.62,10.0,West,8.1,-,N/A,,Clear,280,2012-03-03 14:53:00
10:53 AM,50.0,28.0,43,29.64,10.0,West,8.1,-,N/A,,Clear,270,2012-03-03 15:53:00
11:53 AM,51.8,26.6,38,29.64,10.0,West,20.7,27.6,N/A,,Clear,280,2012-03-03 16:53:00
12:53 PM,54.0,23.0,30,29.62,10.0,West,15.0,21.9,N/A,,Clear,270,2012-03-03 17:53:00
1:53 PM,57.0,19.9,24,29.59,10.0,West,18.4,32.2,N/A,,Clear,270,2012-03-03 18:53:00
2:53 PM,55.9,18.0,23,29.61,10.0,West,24.2,34.5,N/A,,Clear,260,2012-03-03 19:53:00
3:53 PM,55.9,16.0,21,29.62,10.0,West,20.7,33.4,N/A,,Clear,260,2012-03-03 20:53:00
4:53 PM,54.0,15.1,22,29.64,10.0,West,24.2,32.2,N/A,,Clear,270,2012-03-03 21:53:00
5:53 PM,52.0,17.1,25,29.67,10.0,West,15.0,21.9,N/A,,Clear,270,2012-03-03 22:53:00
6:53 PM,50.0,18.0,28,29.70,10.0,WNW,10.4,-,N/A,,Clear,290,2012-03-03 23:53:00
7:53 PM,48.0,19.0,32,29.72,10.0,WNW,6.9,-,N/A,,Clear,300,2012-03-04 00:53:00
8:53 PM,46.9,19.9,34,29.74,10.0,WNW,6.9,-,N/A,,Clear,300,2012-03-04 01:53:00
9:53 PM,46.9,21.0,36,29.74,10.0,West,10.4,-,N/A,,Clear,280,2012-03-04 02:53:00
10:53 PM,45.0,21.9,40,29.74,10.0,North,3.5,-,N/A,,Clear,350,2012-03-04 03:53:00
11:53 PM,44.1,24.1,45,29.75,10.0,West,9.2,-,N/A,,Clear,280,2012-03-04 04:53:00